Regional Weather Roundup
Issued by NWS

Home | Current Version | Previous Version | Graphics & Text | Print | Product List | Glossary On
Versions: 1 2 3 4 5 6 7 8 9 10 11 12 13 14 15 16 17 18 19 20 21 22 23 24 25 26 27 28 29 30 31 32 33 34 35 36 37 38 39 40 41 42 43 44 45 46 47 48 49 50
000
ASUS45 KPSR 242100
RWRAZ

ARIZONA HOURLY REGIONAL WEATHER ROUNDUP
NATIONAL WEATHER SERVICE PHOENIX AZ
200 PM MST SUN MAY 24 2015

NOTE: FAIR INDICATES FEW OR NO CLOUDS BELOW 12,000 FEET WITH NO
SIGNIFICANT WEATHER AND/OR OBSTRUCTIONS TO VISIBILITY.

AZZ001>003-036-242200-
NORTHWEST ARIZONA

CITY           SKY/WX    TMP DP  RH WIND       PRES   REMARKS
KINGMAN        PTSUNNY   75  36  24 SW9G17    29.92F
$$

AZZ004>008-015-016-018-242200-
NORTH CENTRAL ARIZONA

CITY           SKY/WX    TMP DP  RH WIND       PRES   REMARKS
GRAND CANYON   CLOUDY    52  42  69 W10G20    30.05F
WILLIAMS       PTSUNNY   57  39  51 W12G18    30.12F
PRESCOTT       PTSUNNY   67  34  29 W6        29.99F
FLAGSTAFF      NOT AVBL
PAYSON         PTSUNNY   66  34  30 SW10G16   30.00F
PAGE           LGT RAIN  59  50  72 SE5       29.92F
$$

AZZ009>014-017-242200-
NORTHEAST ARIZONA

CITY           SKY/WX    TMP DP  RH WIND       PRES   REMARKS
WINSLOW        NOT AVBL
SAINT JOHNS    MOSUNNY   67  29  24 W12G20    29.94F
WINDOW ROCK    CLOUDY    52  42  69 W13       30.05F
$$

AZZ023-242200-
GREATER PHOENIX AREA

CITY           SKY/WX    TMP DP  RH WIND       PRES   REMARKS
PHOENIX        PTSUNNY   80  40  23 NW9       29.84F
GLENDALE       PTSUNNY   81  41  24 SE6       29.87F
DEER VALLEY    MOSUNNY   77  38  24 VRB5      29.86F
SCOTTSDALE     MOSUNNY   79  39  23 NW6       29.88F
MESA-FALCON    PTSUNNY   79  41  25 NW9       29.88S
MESA-GATEWAY   MOSUNNY   79  41  25 W8        29.88F
CHANDLER       PTSUNNY   81  36  19 SW6       29.86F
$$

AZZ027-028-242200-
SOUTHWEST MARICOPA COUNTY AND PINAL COUNTY

CITY           SKY/WX    TMP DP  RH WIND       PRES   REMARKS
CASA GRANDE    MOSUNNY   79  36  21 W7        29.85F
$$

AZZ503-504-507>509-242200-
SOUTHEAST ARIZONA

CITY           SKY/WX    TMP DP  RH WIND       PRES   REMARKS
TUCSON         MOSUNNY   81  31  16 SW10      29.90F
RYAN FIELD       N/A     81  34  18 N14G23    29.89F
NOGALES        MOSUNNY   76  30  18 W14G22    29.95F
SAFFORD        SUNNY     79  31  17 VRB6      29.87F
$$

AZZ020-021-025-026-031-242200-
SOUTHWEST ARIZONA

CITY           SKY/WX    TMP DP  RH WIND       PRES   REMARKS
YUMA           NOT AVBL
$$

CAZ031-033-041-043-047-048-061-242200-
SOUTHERN CALIFORNIA

CITY           SKY/WX    TMP DP  RH WIND       PRES   REMARKS
DOWNTOWN L.A.  PTSUNNY   70  52  52 VRB5      29.98F
L.A. AIRPORT   MOSUNNY   65  53  65 W15       30.01F
SAN DIEGO      CLOUDY    66  47  50 SW10      30.02F
BURBANK        PTSUNNY   69  50  50 SE10G20   29.98F
ONTARIO        CLOUDY    66  51  58 W12       29.99S
RIVERSIDE      CLOUDY    67  52  58 W12       29.98F
PALM SPRINGS   MOSUNNY   85  48  27 NW17G29   29.85F
EL CENTRO NAS  SUNNY     86  43  22 W15       29.85F
IMPERIAL       SUNNY     86  46  24 NW8       29.83F
BLYTHE         SUNNY     82  47  29 CALM      29.84F
$$

NVZ020-UTZ003-242200-
SOUTHERN NEVADA-UTAH

CITY           SKY/WX    TMP DP  RH WIND       PRES   REMARKS
LAS VEGAS      NOT AVBL
SALT LAKE CITY MOSUNNY   63  45  51 CALM      29.91F
$$

NMZ009-TXZ055-242200-
NEW MEXICO-WEST TEXAS

CITY           SKY/WX    TMP DP  RH WIND       PRES   REMARKS
ALBUQUERQUE    LGT RAIN  64  41  42 N20G29    29.94R
EL PASO        MOSUNNY   79  19  10 W14       29.89F
$$


........................KEY........................
SKY/WX - SKY CONDITION/WEATHER
TMP    - TEMPERATURE IN FAHRENHEIT
DP     - DEW POINT IN FAHRENHEIT
RH     - RELATIVE HUMIDITY IN PERCENT
WIND   - DIRECTION AND SPEED IN MILES PER HOUR (MPH)
VRB    - VARIABLE WIND DIRECTION
PRES   - MEAN SEA LEVEL PRESSURE IN INCHES OF MERCURY
         F - FALLING PRESSURE   R - RISING PRESSURE
         S - STEADY PRESSURE
VSB    - VISIBILITY IN MILES
HX     - HEAT INDEX IN FAHRENHEIT
WCI    - WIND CHILL INDEX IN FAHRENHEIT
TC     - TEMPERATURE IN CELSIUS WHICH IS ALSO KNOWN AS
         TEMPERATURE IN CENTIGRADE
AFB    - AIR FORCE BASE
         LUKE AFB IS LUKE AIR FORCE BASE
         DAVIS-MONTHAN IS DAVIS-MONTHAN AIR FORCE BASE
NAS    - NAVAL AIR STATION
         EL CENTRO NAS IS EL CENTRO NAVAL AIR STATION
N/A    - NOT AVAILABLE



USA.gov is the U.S. government's official web portal to all federal, state and local government web resources and services.